Location: Bergfeld
(52.0500°N, 11.7833°E)
Time: 05:36:25
(UTC+00:00)

STARLINK-1194 - Pass Details

Date: 17 February 2020
Orbit: 379 x 380 km, 53.0° (Epoch: 28 March)

Event Time Altitude Azimuth Distance (km) Brightness Sun altitude
Exits shadow 03:37:11 22° 78° (ENE) 908 5.5 -26.3°
Drops below altitude 10° 03:38:26 10° 77° (ENE) 1,412 6.7 -26.1°
Enters shadow 04:33:10 -71° 266° (W) 12,440 10.5 -17.8°
Maximum altitude 05:11:13 73° 5° (N) 406 2.9 -12.0°
